Weather History for Covington, KY

Change the Weather History Date:

Thursday, January 10, 2013

  Actual Average Record
Temperature  
Mean Temperature 40 °F 31 °F  
Max Temperature 47 °F 38 °F 61 °F (1975)
Min Temperature 32 °F 23 °F -14 °F (1982)
Degree Days  
Heating Degree Days 25 34  
Month to date heating degree days 325 340  
Since 1 July heating degree days 2191 2259  
Cooling Degree Days 0 0  
Month to date cooling degree days 0 0  
Year to date cooling degree days 0 0  
Moisture  
Dew Point 35 °F    
Average Humidity 80    
Maximum Humidity 89    
Minimum Humidity 70    
Precipitation  
Precipitation 0.12 in 0.10 in 1.57 in (1924)
Month to date precipitation 0.21 1.00  
Year to date precipitation 0.21 1.00  
Snow  
Snow 0.00 in 0.20 in 3.50 in (1977)
Month to date snowfall 0.2 1.9  
Since 1 July snowfall 7.8 7.5  
Snow Depth 0.00 in    
Sea Level Pressure  
Sea Level Pressure 30.36 in    
Wind  
Wind Speed 7 mph (East)    
Max Wind Speed 14 mph    
Max Gust Speed 17 mph    
Visibility 8 miles    
Events Rain    
T = Trace of Precipitation, MM = Missing Value Source: NWS Daily Summary

Daily Weather History Graph

Daily Weather History Graph

Search for Another Location

Airport:

Trip Planner

Search our weather history database for the weather conditions in past years. The results will help you decide how hot, cold, wet, or windy it might be!

Date:

Astronomy

Jan. 10, 2013 Rise Set
Actual Time 7:57 AM EST 5:35 PM EST
Civil Twilight 7:27 AM EST 6:05 PM EST
Nautical Twilight 6:54 AM EST 6:38 PM EST
Astronomical Twilight 6:22 AM EST 7:10 PM EST
Moon 6:36 AM EST (1/10) 4:42 PM EST (1/10)
Length of Visible Light 10h 37m
Length of Day
9h 38m
Waning Crescent, 2% of the Moon is Illuminated
Jan 10
Waning Crescent
Jan 11
New
Jan 18
First Quarter
Jan 26
Full
Feb 3
Last Quarter

Hourly Weather History & Observations

Time (EST) Temp. Windchill Dew Point Humidity Pressure Visibility Wind Dir Wind Speed Gust Speed Precip Events Conditions
12:52 AM 35.1 °F - 30.9 °F 85% 30.52 in 10.0 mi Calm Calm - N/A   Overcast
1:52 AM 35.1 °F - 30.9 °F 85% 30.51 in 10.0 mi Calm Calm - N/A   Overcast
2:52 AM 35.1 °F - 30.9 °F 85% 30.52 in 10.0 mi Calm Calm - N/A   Mostly Cloudy
3:52 AM 33.1 °F 30.0 °F 30.0 °F 89% 30.50 in 10.0 mi NNE 3.5 mph - N/A   Scattered Clouds
4:52 AM 35.1 °F - 30.9 °F 85% 30.49 in 10.0 mi Calm Calm - N/A   Overcast
5:52 AM 37.0 °F 32.4 °F 30.9 °F 79% 30.48 in 10.0 mi ENE 5.8 mph - N/A   Scattered Clouds
6:52 AM 33.1 °F 28.7 °F 30.0 °F 89% 30.49 in 9.0 mi East 4.6 mph - N/A   Mostly Cloudy
7:52 AM 35.1 °F 30.1 °F 30.9 °F 85% 30.51 in 9.0 mi East 5.8 mph - N/A   Overcast
10:52 AM 37.9 °F 30.9 °F 30.9 °F 76% 30.48 in 10.0 mi East 10.4 mph - N/A   Overcast
11:52 AM 39.0 °F 32.3 °F 30.9 °F 73% 30.44 in 10.0 mi East 10.4 mph - 0.00 in   Overcast
12:52 PM 41.0 °F 35.8 °F 32.0 °F 70% 30.40 in 10.0 mi ESE 8.1 mph - 0.00 in Rain Light Rain
1:52 PM 42.1 °F 36.1 °F 35.1 °F 76% 30.35 in 10.0 mi East 10.4 mph - 0.00 in Rain Light Rain
2:52 PM 41.0 °F 35.8 °F 35.6 °F 81% 30.33 in 7.0 mi East 8.1 mph - N/A Rain Light Rain
3:52 PM 42.1 °F 37.7 °F 37.9 °F 85% 30.33 in 10.0 mi East 6.9 mph - 0.01 in   Overcast
4:33 PM 42.8 °F 37.5 °F 37.4 °F 81% 30.31 in 3.0 mi East 9.2 mph - 0.00 in Rain Light Rain
4:52 PM 42.1 °F 36.6 °F 37.9 °F 85% 30.32 in 3.0 mi East 9.2 mph - 0.02 in Rain Light Rain
4:57 PM 41.0 °F 35.8 °F 37.4 °F 87% 30.30 in 2.5 mi East 8.1 mph - 0.00 in Rain Light Rain
5:20 PM 41.0 °F 34.3 °F 39.2 °F 93% 30.29 in 2.5 mi East 11.5 mph - 0.01 in Rain Light Rain
5:52 PM 41.0 °F 33.9 °F 39.0 °F 93% 30.28 in 3.0 mi East 12.7 mph - 0.03 in   Light Drizzle
6:02 PM 41.0 °F 34.3 °F 39.2 °F 93% 30.27 in 9.0 mi East 11.5 mph - 0.00 in   Overcast
6:36 PM 42.8 °F 37.5 °F 39.2 °F 87% 30.26 in 3.0 mi East 9.2 mph - 0.02 in Rain Rain
6:52 PM 42.1 °F 37.1 °F 39.9 °F 92% 30.25 in 6.0 mi East 8.1 mph - 0.04 in Rain Light Rain
7:52 PM 43.0 °F 37.2 °F 39.0 °F 86% 30.21 in 10.0 mi East 10.4 mph - 0.00 in   Overcast
8:52 PM 43.0 °F 38.2 °F 39.0 °F 86% 30.18 in 10.0 mi ESE 8.1 mph - N/A   Overcast
9:52 PM 45.0 °F 41.8 °F 39.0 °F 80% 30.16 in 10.0 mi SE 5.8 mph - N/A   Overcast
10:52 PM 46.0 °F 42.5 °F 39.9 °F 79% 30.12 in 10.0 mi ESE 6.9 mph - N/A   Overcast
11:52 PM 46.0 °F 41.4 °F 41.0 °F 83% 30.11 in 10.0 mi SE 9.2 mph - N/A   Overcast